Regional Weather Roundup
Issued by NWS

Home | Current Version | Previous Version | Text Only | Print | Product List | Glossary Off
Versions: 1 2 3 4 5 6 7 8 9 10 11 12 13 14 15 16 17 18 19 20 21 22 23 24 25 26 27 28 29 30 31 32 33 34 35 36 37 38 39 40 41 42 43 44 45 46 47 48 49 50

000
ASUS43 KOAX 281910
RWRNE

WEATHER ROUNDUP FOR NEBRASKA
NATIONAL WEATHER SERVICE OMAHA NE
100 PM CST WED JAN 28 2015

NOTES: SATELLITE DATA IS BEING USED TO AUGMENT CLOUD COVER ABOVE
       12000 FEET.
       "FAIR" INDICATES FEW OR NO CLOUDS BELOW 12,000 FEET WITH NO
       SIGNIFICANT WEATHER AND/OR OBSTRUCTIONS TO VISIBILITY.

  * THESE STATIONS DO NOT REPORT WEATHER SUCH AS RAIN...SNOW OR FOG.

NEZ001>004-019>022-054>056-282000-
NEBRASKA PANHANDLE

CITY           SKY/WX    TMP DP  RH WIND       PRES   REMARKS
SCOTTSBLUFF      N/A    N/A N/A N/A MISG      29.99R
ALLIANCE       PTSUNNY   55  34  45 NW26G32   29.91S
CHADRON        CLOUDY    52  32  46 NW22G32   29.94R
KIMBALL        SUNNY     55  30  39 NW33G43   29.99R
SIDNEY         SUNNY     58  32  37 NW35G47   29.97R
$$

NEZ057>060-069>072-079>082-282000-
SOUTHWEST NEBRASKA

CITY           SKY/WX    TMP DP  RH WIND       PRES   REMARKS
NORTH PLATTE   SUNNY     65  32  29 NW26G38   29.83F
IMPERIAL       SUNNY     64  29  26 NW28G45   29.88F
LEXINGTON      PTSUNNY   66  33  29 NW26G33   29.78F
MCCOOK         MOSUNNY   69  30  23 NW26G41   29.83F
OGALLALA       SUNNY     61  34  35 NW32G38   29.87F
$$

NEZ005>010-023>029-035>040-094-282000-
NORTH CENTRAL NEBRASKA

CITY           SKY/WX    TMP DP  RH WIND       PRES   REMARKS
VALENTINE      SUNNY     61  32  33 NW17G29   29.78S
AINSWORTH      SUNNY     59  32  36 NW20G28   29.76F
BROKEN BOW     MOSUNNY   67  34  29 NW24      29.75F
O`NEILL        SUNNY     63  37  37 NW12G20   29.70F
ORD            MOSUNNY   63  33  32 NW20      29.71F
THEDFORD       SUNNY     63  33  32 NW26G33   29.79F
$$

NEZ041-046>049-061>064-073>077-083>087-282000-
SOUTH CENTRAL NEBRASKA

CITY           SKY/WX    TMP DP  RH WIND       PRES   REMARKS
GRAND ISLAND   PTSUNNY   62  34  35 NW16G24   29.73F
AURORA         PTSUNNY   59  34  38 W9        29.71F
HASTINGS       PTSUNNY   63  32  31 NW14      29.73F
HEBRON         PTSUNNY   59  32  35 NW9       29.73F
HOLDREGE       MOSUNNY   65  31  29 NW24G35   29.77F
KEARNEY *      MOSUNNY   64  34  32 NW20G29   29.74F
YORK           PTSUNNY   57  36  44 NW8       29.71F
$$

NEZ011>018-030>034-042>045-282000-
NORTHEAST NEBRASKA

CITY           SKY/WX    TMP DP  RH WIND       PRES   REMARKS
NORFOLK        MOSUNNY   53  35  50 W7        29.67F
ALBION         CLOUDY    61  33  36 NW10      29.69F
BLAIR          MOSUNNY   51  33  51 S10       29.71F
COLUMBUS *     PTSUNNY   48  34  57 S3        29.71F
FREMONT        MOSUNNY   50  33  52 S3        29.72F
TEKAMAH        MOSUNNY   49  35  58 SE10      29.71F
WAYNE          MOSUNNY   49  35  57 SW8       29.69F
$$

NEZ050>053-065>068-078-088>093-282000-
SOUTHEAST NEBRASKA

CITY           SKY/WX    TMP DP  RH WIND       PRES   REMARKS
LINCOLN        MOSUNNY   54  35  48 VRB3      29.73F
OMAHA EPPLEY   PTSUNNY   49  33  54 SE10      29.73F
BEATRICE       MOSUNNY   57  36  45 S5        29.72F
FALLS CITY     SUNNY     66  38  35 S14G20    29.73F
NEBRASKA CITY  MOSUNNY   60  31  33 SW9       29.73S
PLATTSMOUTH    MOSUNNY   54  32  43 S7        29.74F
$$

NEZ044-045-051>053-067-282000-
OMAHA AREA

CITY           SKY/WX    TMP DP  RH WIND       PRES   REMARKS
OMAHA EPPLEY   PTSUNNY   49  33  54 SE10      29.73F
BLAIR          MOSUNNY   51  33  51 S10       29.71F
FREMONT        MOSUNNY   50  33  52 S3        29.72F
MILLARD        MOSUNNY   51  34  53 SE9       29.72F
OFFUTT AFB     MOSUNNY   50  34  54 VRB1      29.73F
PLATTSMOUTH    MOSUNNY   54  32  43 S7        29.74F
WAHOO          FAIR      51  32  48 S5        29.71F
$$



USA.gov is the U.S. government's official web portal to all federal, state and local government web resources and services.